Station PTOA1 - 8737005 - Pinto Island, AL Image indicating link to RSS feed of recent meteorological observations for station PTOA1


Conditions at PTOA1 as of
(7:18 pm CDT on 05/22/2024)
0018 GMT on 05/23/2024:
     

Click on the graph icon in the table below to see a time series plot of the last five days of that observation.

5-day plot - Air Temperature Air Temperature (ATMP): 80.1 °F
5-day plot - Dew Point Dew Point (DEWP): 68.0 °F
5-day plot - Visibility Visibility (VIS): 5.9 nmi
5-day plot - Heat Index Heat Index (HEAT): 82.6 °F
NOS Water Level Observation Network Water Level
Previous observations
TIME
(CDT)
5-day plot - Wind Direction
WDIR
 
5-day plot - Wind Speed
WSPD
kts
5-day plot - Wind Gust
GST
kts
5-day plot - Wave Height
WVHT
ft
5-day plot - Dominant Wave Period
DPD
sec
5-day plot - Average Wave Period
APD
sec
5-day plot - Mean Wave Direction
MWD
 
5-day plot - Atmospheric Pressure
PRES
in
5-day plot - Pressure Tendency
PTDY
in
5-day plot - Air Temperature
ATMP
°F
5-day plot - Water Temperature
WTMP
°F
5-day plot - Dew Point
DEWP
°F
5-day plot - Salinity
SAL
psu
5-day plot - Visibility
VIS
nmi
5-day plot - Tide (above MLLW)
TIDE
ft
2024-05-22 07:12 pm--------- 80.4- 69.1- 5.9-
2024-05-22 07:06 pm--------- 80.2- 69.3- 5.9-
2024-05-22 07:00 pm--------- 80.4- 70.2- 5.9-
2024-05-22 06:54 pm--------- 80.6- 68.9- 5.9-
2024-05-22 06:48 pm--------- 80.4- 70.2- 5.9-
2024-05-22 06:42 pm--------- 80.2- 70.5- 5.9-
2024-05-22 06:36 pm--------- 80.4- 70.7- 5.9-
2024-05-22 06:30 pm--------- 80.4- 69.6- 5.9-
2024-05-22 06:24 pm--------- 80.8- 69.8- 5.9-
2024-05-22 06:18 pm--------- 81.0- 70.3- 5.9-
2024-05-22 06:12 pm--------- 80.6- 71.4- 5.9-
2024-05-22 06:06 pm--------- 81.0- 71.1- 5.9-
2024-05-22 06:00 pm--------- 81.0- 69.6- 5.9-
2024-05-22 05:54 pm--------- 81.0- 69.6- 5.9-
2024-05-22 05:30 pm--------- 81.1- 69.1- 5.9-
2024-05-22 05:24 pm--------- 81.5- 68.7- 5.9-
2024-05-22 05:18 pm--------- 82.2- 68.9- 5.9-
2024-05-22 05:12 pm--------- 82.4- 69.1- 5.9-
2024-05-22 05:06 pm--------- 81.3- 69.1- 5.9-
2024-05-22 05:00 pm--------- 81.0- 68.2- 5.9-
2024-05-22 04:54 pm--------- 81.3- 69.1- 5.9-
2024-05-22 04:30 pm--------- 80.8- 71.1- 5.9-
2024-05-22 04:24 pm--------- 80.8- 70.3- 5.9-
2024-05-22 04:18 pm--------- 81.0- 70.3- 5.9-
2024-05-22 04:12 pm--------- 81.1- 71.1- 5.9-
2024-05-22 04:06 pm--------- 81.0- 70.3- 5.9-
2024-05-22 04:00 pm--------- 80.8- 70.2- 5.9-
2024-05-22 03:54 pm--------- 81.0- 70.3- 5.9-
2024-05-22 03:48 pm--------- 81.1- 70.0- 5.9-
2024-05-22 03:42 pm--------- 81.0- 70.3- 5.9-
2024-05-22 03:36 pm--------- 80.8- 70.9- 5.9-
2024-05-22 03:30 pm--------- 81.3- 70.3- 5.9-
2024-05-22 03:24 pm--------- 81.0- 71.1- 5.9-
2024-05-22 03:18 pm--------- 80.4- 70.3- 5.9-
2024-05-22 03:12 pm--------- 80.6- 71.1- 5.9-
2024-05-22 03:06 pm--------- 80.4- 71.2- 5.9-
2024-05-22 03:00 pm--------- 80.6- 70.3- 5.9-
2024-05-22 02:54 pm--------- 80.4- 71.1- 5.9-
2024-05-22 02:48 pm--------- 80.6- 70.9- 5.9-
2024-05-22 02:42 pm--------- 80.6- 70.5- 5.9-
2024-05-22 02:36 pm--------- 81.0- 70.2- 5.9-
2024-05-22 02:30 pm--------- 80.8- 69.3- 5.9-
2024-05-22 02:24 pm--------- 81.0- 69.3- 5.9-
2024-05-22 02:18 pm--------- 80.8- 69.6- 5.9-
2024-05-22 02:12 pm--------- 80.8- 70.5- 5.9-
2024-05-22 02:06 pm--------- 80.6- 70.7- 5.9-
2024-05-22 02:00 pm--------- 80.6- 70.3- 5.9-
2024-05-22 01:54 pm--------- 80.8- 69.4- 5.9-
2024-05-22 01:48 pm--------- 81.0- 69.6- 5.9-
2024-05-22 01:42 pm--------- 80.8- 68.9- 5.9-
2024-05-22 01:36 pm--------- 81.1- 68.7- 5.9-
2024-05-22 01:30 pm--------- 80.6- 69.8- 5.9-
2024-05-22 01:24 pm--------- 80.6- 69.1- 5.9-
2024-05-22 11:18 am--------- 80.2- 70.0- 5.9-
2024-05-22 11:12 am--------- 80.1- 68.9- 5.9-
2024-05-22 11:06 am--------- 80.2- 68.7- 5.9-
2024-05-22 11:00 am--------- 80.2- 69.4- 5.9-
2024-05-22 10:54 am--------- 79.7- 69.6- 5.9-
2024-05-22 10:48 am--------- 79.9- 69.6- 5.9-
2024-05-22 10:42 am--------- 80.4- 70.0- 5.9-
2024-05-22 10:36 am--------- 81.0- 70.2- 5.9-
2024-05-22 10:30 am--------- 81.0- 70.2- 5.9-
2024-05-22 10:24 am--------- 81.1- 70.0- 5.9-
2024-05-22 10:18 am--------- 81.3- 70.2- 5.9-
2024-05-22 10:12 am--------- 80.8- 69.3- 5.9-
2024-05-22 10:06 am--------- 81.0- 70.2- 5.9-
2024-05-22 10:00 am--------- 80.4- 70.5- 5.9-
2024-05-22 09:54 am--------- 80.8- 69.6- 5.9-
2024-05-22 09:00 am--------- 77.7- 70.5- 5.9-
2024-05-22 08:54 am--------- 77.4- 70.2- 5.9-
2024-05-22 08:00 am--------- 76.6- 70.3- 5.9-
2024-05-22 07:54 am--------- 76.8- 70.3- 5.9-
2024-05-22 07:48 am--------- 77.5- 70.7- 5.9-
2024-05-22 07:42 am--------- 77.4- 70.7- 5.9-
2024-05-22 07:36 am--------- 76.8- 70.9- 5.9-
2024-05-22 07:30 am--------- 76.6- 70.9- 5.9-
2024-05-22 07:24 am--------- 76.6- 70.9- 5.9-
2024-05-22 07:18 am--------- 76.5- 71.1- 5.9-
2024-05-22 07:12 am--------- 75.9- 70.9- 5.9-
2024-05-22 07:06 am--------- 76.1- 70.5- 5.9-
2024-05-22 07:00 am--------- 75.6- 70.5- 5.9-
2024-05-22 06:54 am--------- 75.6- 70.9- 5.9-
2024-05-22 06:48 am--------- 75.0- 70.9- 5.9-
2024-05-22 06:42 am--------- 75.2- 70.9- 5.9-
2024-05-22 06:36 am--------- 75.6- 71.1- 5.9-
2024-05-22 06:30 am--------- 75.0- 70.9- 5.9-
2024-05-22 06:24 am--------- 75.0- 71.1- 5.9-
2024-05-22 06:18 am--------- 75.2- 71.1- 5.9-
2024-05-22 06:12 am--------- 75.4- 71.1- 5.9-
2024-05-22 06:06 am--------- 75.4- 71.2- 5.9-
2024-05-22 06:00 am--------- 75.6- 71.8- 5.9-
2024-05-22 05:54 am--------- 75.6- 71.6- 5.9-
2024-05-22 05:48 am--------- 75.6- 71.6- 5.9-
2024-05-22 05:42 am--------- 75.7- 71.6- 5.9-
2024-05-22 05:36 am--------- 75.9- 71.6- 5.9-
2024-05-22 05:30 am--------- 75.7- 71.4- 5.9-
2024-05-22 05:24 am--------- 75.9- 71.8- 5.9-
2024-05-22 05:18 am--------- 75.7- 71.6- 5.9-
2024-05-22 05:12 am--------- 75.7- 71.6- 5.9-
2024-05-22 05:06 am--------- 75.6- 71.8- 5.9-
2024-05-22 05:00 am--------- 75.7- 71.8- 5.9-
2024-05-22 04:54 am--------- 75.9- 71.8- 5.9-
2024-05-22 04:48 am--------- 75.9- 71.8- 5.9-
2024-05-22 04:42 am--------- 75.9- 72.0- 5.9-
2024-05-22 04:36 am--------- 76.1- 72.0- 5.9-
2024-05-22 04:30 am--------- 76.5- 71.8- 5.9-
2024-05-22 04:24 am--------- 76.5- 71.8- 5.9-
2024-05-22 04:18 am--------- 76.3- 71.6- 5.9-
2024-05-22 04:12 am--------- 76.5- 72.0- 5.9-
2024-05-22 04:06 am--------- 76.3- 72.0- 5.9-
2024-05-22 04:00 am--------- 76.5- 72.1- 5.9-
2024-05-22 03:54 am--------- 76.5- 72.0- 5.9-
2024-05-22 03:48 am--------- 76.5- 72.0- 5.9-
2024-05-22 03:42 am--------- 76.5- 72.0- 5.9-
2024-05-22 03:36 am--------- 76.6- 72.1- 5.9-
2024-05-22 03:30 am--------- 76.6- 72.0- 5.9-
2024-05-22 03:24 am--------- 76.6- 72.1- 5.9-
2024-05-22 03:18 am--------- 76.6- 72.3- 5.9-
2024-05-22 03:12 am--------- 76.5- 72.1- 5.9-
2024-05-22 03:06 am--------- 76.6- 72.5- 5.9-
2024-05-22 03:00 am--------- 76.6- 72.1- 5.9-
2024-05-22 02:54 am--------- 76.6- 71.8- 5.9-
2024-05-22 02:48 am--------- 76.6- 71.8- 5.9-
2024-05-22 02:42 am--------- 76.8- 72.3- 5.9-
2024-05-22 02:36 am--------- 76.8- 72.1- 5.9-
2024-05-22 02:30 am--------- 76.8- 72.5- 5.9-
2024-05-22 02:24 am--------- 77.2- 72.7- 5.9-
2024-05-22 02:18 am--------- 77.4- 72.3- 5.9-
2024-05-22 02:12 am--------- 77.4- 71.1- 5.9-
2024-05-22 02:06 am--------- 77.5- 71.2- 5.9-
2024-05-22 02:00 am--------- 77.5- 71.4- 5.9-
2024-05-22 01:54 am--------- 77.5- 71.4- 5.9-
2024-05-22 01:48 am--------- 77.5- 71.4- 5.9-
2024-05-22 01:42 am--------- 77.2- 71.4- 5.9-
2024-05-22 01:36 am--------- 75.7- 71.6- 5.9-
2024-05-22 01:30 am--------- 75.7- 71.4- 5.9-
2024-05-22 01:24 am--------- 75.6- 71.1- 5.9-
2024-05-22 01:18 am--------- 75.9- 71.2- 5.9-
2024-05-22 01:12 am--------- 77.2- 71.6- 5.9-
2024-05-22 01:06 am--------- 77.9- 71.8- 5.9-
2024-05-22 01:00 am--------- 77.9- 71.2- 5.9-
2024-05-22 12:54 am--------- 77.9- 71.1- 5.9-
2024-05-22 12:48 am--------- 77.9- 71.6- 5.9-
2024-05-22 12:42 am--------- 77.7- 70.9- 5.9-
2024-05-22 12:36 am--------- 77.4- 72.1- 5.9-
2024-05-22 12:30 am--------- 76.8- 72.0- 5.9-
2024-05-22 12:24 am--------- 76.5- 71.6- 5.9-
2024-05-22 12:18 am--------- 76.3- 71.4- 5.9-
2024-05-22 12:12 am--------- 76.3- 71.2- 5.9-
2024-05-22 12:06 am--------- 76.3- 71.1- 5.9-
2024-05-22 12:00 am--------- 76.5- 71.1- 5.9-
2024-05-21 11:54 pm--------- 76.6- 71.4- 5.9-
2024-05-21 11:48 pm--------- 76.5- 71.1- 5.9-
2024-05-21 11:42 pm--------- 76.6- 71.2- 5.9-
2024-05-21 11:36 pm--------- 76.6- 71.2- 5.9-
2024-05-21 11:30 pm--------- 76.6- 71.1- 5.9-
2024-05-21 11:24 pm--------- 76.5- 70.9- 5.9-
2024-05-21 11:18 pm--------- 76.6- 70.9- 5.9-
2024-05-21 11:12 pm--------- 76.8- 71.1- 5.9-
2024-05-21 11:06 pm--------- 77.0- 71.2- 5.9-
2024-05-21 11:00 pm--------- 77.4- 71.2- 5.9-
2024-05-21 10:54 pm--------- 77.7- 71.2- 5.9-
2024-05-21 10:48 pm--------- 78.4- 71.4- 5.9-
2024-05-21 10:42 pm--------- 78.4- 71.6- 5.9-
2024-05-21 10:36 pm--------- 78.3- 71.2- 5.9-
2024-05-21 10:30 pm--------- 78.3- 71.4- 5.9-
2024-05-21 10:24 pm--------- 78.3- 72.0- 5.9-
2024-05-21 10:18 pm--------- 78.4- 71.8- 5.9-
2024-05-21 10:12 pm--------- 78.1- 71.4- 5.9-
2024-05-21 10:06 pm--------- 78.3- 71.4- 5.9-
2024-05-21 10:00 pm--------- 78.3- 71.8- 5.9-
2024-05-21 09:54 pm--------- 78.3- 71.8- 5.9-
2024-05-21 09:48 pm--------- 78.3- 72.0- 5.9-
2024-05-21 09:42 pm--------- 78.3- 71.6- 5.9-
2024-05-21 09:36 pm--------- 78.4- 71.4- 5.9-
2024-05-21 09:30 pm--------- 78.4- 71.2- 5.9-
2024-05-21 09:24 pm--------- 78.6- 71.8- 5.9-
2024-05-21 09:18 pm--------- 78.6- 72.1- 5.9-
2024-05-21 09:12 pm--------- 78.6- 72.1- 5.9-
2024-05-21 09:06 pm--------- 78.6- 72.1- 5.9-
2024-05-21 09:00 pm--------- 78.6- 71.8- 5.9-
2024-05-21 08:54 pm--------- 78.6- 71.8- 5.9-
2024-05-21 08:48 pm--------- 78.6- 72.1- 5.9-
2024-05-21 08:42 pm--------- 78.6- 71.8- 5.9-
2024-05-21 08:36 pm--------- 78.6- 71.6- 5.9-
2024-05-21 08:30 pm--------- 78.8- 72.0- 5.9-
2024-05-21 08:24 pm--------- 78.8- 72.0- 5.9-
2024-05-21 08:18 pm--------- 78.8- 71.4- 5.9-
2024-05-21 08:12 pm--------- 79.0- 71.6- 5.9-
2024-05-21 08:06 pm--------- 79.0- 71.2- 5.9-
2024-05-21 08:00 pm--------- 79.2- 72.0- 5.9-
2024-05-21 07:54 pm--------- 79.2- 71.2- 5.9-
2024-05-21 07:48 pm--------- 79.2- 71.4- 5.9-
2024-05-21 07:42 pm--------- 79.2- 71.1- 5.9-
2024-05-21 07:36 pm--------- 79.3- 71.8- 5.9-
2024-05-21 07:30 pm--------- 79.3- 72.1- 5.9-
2024-05-21 07:24 pm--------- 79.3- 71.4- 5.9-
2024-05-21 07:18 pm--------- 79.5- 71.2- 5.9-
2024-05-21 07:12 pm--------- 79.5- 71.6- 5.9-
2024-05-21 07:06 pm--------- 79.5- 70.9- 5.9-
2024-05-21 07:00 pm--------- 79.7- 71.4- 5.9-
2024-05-21 06:54 pm--------- 79.9- 71.4- 5.9-